Alamogordo, NM

2:48 PM MST on January 17, 2017 (GMT -0700)
Alamogordo-White Sands Regional

Weather History for KALM - May, 2014

Change the Weather History Date:

Monday, May 26, 2014

  Actual Average Record
Temperature  
Mean Temperature 70 °F -  
Max Temperature 80 °F 90 °F 103 °F (1951)
Min Temperature 59 °F 57 °F 44 °F (1955)
Cooling Degree Days 4    
Growing Degree Days 20 (Base 50)    
Moisture  
Dew Point 38 °F    
Average Humidity 34    
Maximum Humidity 59    
Minimum Humidity 17    
Precipitation  
Precipitation 0.00 in - - ()
Sea Level Pressure  
Sea Level Pressure 30.06 in    
Wind  
Wind Speed 8 mph (North)    
Max Wind Speed 21 mph    
Max Gust Speed 30 mph    
Visibility 10 miles    
Events Rain    
Averages and records for this station are not official NWS values.
T = Trace of Precipitation, MM = Missing Value Source: NWS Daily Summary

Daily Weather History Graph

Daily Weather History Graph

Search for Another Location

Airport or City:

Trip Planner

Search our weather history database for the weather conditions in past years. The results will help you decide how hot, cold, wet, or windy it might be!

Date:

Astronomy

May. 26, 2014 Rise Set
Actual Time 5:58 AM MDT 8:03 PM MDT
Civil Twilight 5:30 AM MDT 8:31 PM MDT
Nautical Twilight 4:56 AM MDT 9:05 PM MDT
Astronomical Twilight 4:20 AM MDT 9:42 PM MDT
Moon 4:34 AM MDT (5/26) 6:15 PM MDT (5/26)
Length of Visible Light 15h 00m
Length of Day
14h 04m
Waning Crescent, 4% of the Moon is Illuminated
May 26
Waning Crescent
May 28
New
Jun 5
First Quarter
Jun 12
Full
Jun 19
Last Quarter

Hourly Weather History & Observations

Time (MDT) Temp. Dew Point Humidity Pressure Visibility Wind Dir Wind Speed Gust Speed Precip Events Conditions
12:15 AM 68.0 °F 35.6 °F 30% 30.04 in 10.0 mi NNE 10.4 mph - N/A   Clear
12:35 AM 68.0 °F 35.6 °F 30% 30.03 in 10.0 mi NNE 10.4 mph - N/A   Clear
12:55 AM 68.0 °F 35.6 °F 30% 30.03 in 10.0 mi NNE 12.7 mph - N/A   Clear
1:15 AM 68.0 °F 37.4 °F 33% 30.03 in 10.0 mi NNE 13.8 mph - N/A   Clear
1:35 AM 66.2 °F 37.4 °F 35% 30.03 in 10.0 mi NE 11.5 mph - N/A   Partly Cloudy
1:55 AM 66.2 °F 37.4 °F 35% 30.03 in 10.0 mi NNE 8.1 mph - N/A   Scattered Clouds
2:15 AM 68.0 °F 37.4 °F 33% 30.03 in 10.0 mi North 6.9 mph - N/A   Mostly Cloudy
2:35 AM 66.2 °F 37.4 °F 35% 30.02 in 10.0 mi NNE 4.6 mph - N/A   Scattered Clouds
2:55 AM 66.2 °F 37.4 °F 35% 30.02 in 10.0 mi Calm Calm - N/A   Scattered Clouds
3:15 AM 66.2 °F 37.4 °F 35% 30.02 in 10.0 mi NE 6.9 mph - N/A   Mostly Cloudy
3:35 AM 66.2 °F 37.4 °F 35% 30.01 in 10.0 mi North 6.9 mph - N/A Rain Light Rain
3:55 AM 66.2 °F 37.4 °F 35% 30.01 in 10.0 mi NNE 4.6 mph - N/A   Mostly Cloudy
4:15 AM 66.2 °F 37.4 °F 35% 30.02 in 10.0 mi North 5.8 mph - N/A   Overcast
4:35 AM 66.2 °F 37.4 °F 35% 30.02 in 10.0 mi NNW 5.8 mph - N/A   Overcast
4:55 AM 64.4 °F 37.4 °F 37% 30.03 in 10.0 mi North 5.8 mph - N/A   Overcast
5:15 AM 64.4 °F 37.4 °F 37% 30.04 in 10.0 mi NNW 3.5 mph - N/A   Overcast
5:35 AM 64.4 °F 37.4 °F 37% 30.04 in 10.0 mi West 3.5 mph - N/A Rain Light Rain
5:55 AM 60.8 °F 39.2 °F 45% 30.04 in 10.0 mi West 3.5 mph - N/A Rain Rain
6:15 AM 59.0 °F 39.2 °F 48% 30.05 in 10.0 mi NNW 4.6 mph - N/A Rain Light Rain
6:35 AM 59.0 °F 41.0 °F 51% 30.06 in 10.0 mi NW 4.6 mph - N/A Rain Rain
6:55 AM 59.0 °F 42.8 °F 55% 30.07 in 10.0 mi SE 4.6 mph - N/A Rain Light Rain
7:15 AM 59.0 °F 44.6 °F 59% 30.07 in 10.0 mi SSE 9.2 mph - N/A Rain Light Rain
7:35 AM 62.6 °F 41.0 °F 45% 30.08 in 10.0 mi South 6.9 mph - N/A Rain Light Rain
7:55 AM 62.6 °F 44.6 °F 52% 30.09 in 10.0 mi South 4.6 mph - N/A Rain Light Rain
8:15 AM 64.4 °F 44.6 °F 49% 30.10 in 10.0 mi SW 5.8 mph - N/A   Mostly Cloudy
8:35 AM 64.4 °F 44.6 °F 49% 30.09 in 10.0 mi Calm Calm - N/A   Mostly Cloudy
8:55 AM 64.4 °F 44.6 °F 49% 30.09 in 10.0 mi SE 4.6 mph - N/A   Overcast
9:15 AM 64.4 °F 44.6 °F 49% 30.08 in 10.0 mi SE 5.8 mph - N/A Rain Light Rain
9:35 AM 66.2 °F 42.8 °F 43% 30.09 in 10.0 mi North 3.5 mph - N/A   Overcast
9:55 AM 66.2 °F 41.0 °F 40% 30.10 in 10.0 mi NNW 8.1 mph - N/A   Overcast
10:15 AM 66.2 °F 41.0 °F 40% 30.10 in 10.0 mi NNE 8.1 mph - N/A   Overcast
10:35 AM 66.2 °F 41.0 °F 40% 30.10 in 10.0 mi NNE 4.6 mph - N/A   Overcast
10:55 AM 68.0 °F 41.0 °F 37% 30.10 in 10.0 mi NE 5.8 mph - N/A   Mostly Cloudy
11:15 AM 69.8 °F 41.0 °F 35% 30.11 in 10.0 mi NNW 11.5 mph 17.3 mph N/A   Scattered Clouds
11:35 AM 68.0 °F 41.0 °F 37% 30.12 in 10.0 mi NNW 18.4 mph 23.0 mph N/A   Scattered Clouds
11:55 AM 66.2 °F 44.6 °F 46% 30.12 in 10.0 mi North 18.4 mph - N/A   Scattered Clouds
12:15 PM 66.2 °F 44.6 °F 46% 30.12 in 10.0 mi North 9.2 mph - N/A   Scattered Clouds
12:35 PM 68.0 °F 44.6 °F 43% 30.12 in 10.0 mi NNW 10.4 mph - N/A   Scattered Clouds
12:55 PM 68.0 °F 44.6 °F 43% 30.11 in 10.0 mi ENE 4.6 mph - N/A   Mostly Cloudy
1:15 PM 69.8 °F 44.6 °F 40% 30.10 in 10.0 mi NE 8.1 mph - N/A   Scattered Clouds
1:35 PM 71.6 °F 44.6 °F 38% 30.10 in 10.0 mi ESE 3.5 mph - N/A   Mostly Cloudy
1:55 PM 73.4 °F 41.0 °F 31% 30.10 in 10.0 mi WNW 13.8 mph 21.9 mph N/A   Scattered Clouds
2:15 PM 73.4 °F 42.8 °F 33% 30.09 in 10.0 mi WSW 13.8 mph 23.0 mph N/A   Partly Cloudy
2:35 PM 73.4 °F 44.6 °F 36% 30.08 in 10.0 mi WSW 10.4 mph 19.6 mph N/A   Clear
2:55 PM 75.2 °F 42.8 °F 31% 30.06 in 10.0 mi WSW 5.8 mph - N/A   Clear
3:15 PM 75.2 °F 41.0 °F 29% 30.05 in 10.0 mi NW 4.6 mph - N/A   Clear
3:35 PM 77.0 °F 39.2 °F 26% 30.04 in 10.0 mi WNW 10.4 mph 16.1 mph N/A   Clear
3:55 PM 77.0 °F 37.4 °F 24% 30.03 in 10.0 mi WNW 18.4 mph 21.9 mph N/A   Clear
4:15 PM 80.6 °F 37.4 °F 21% 30.04 in 10.0 mi NNW 12.7 mph 19.6 mph N/A   Clear
4:35 PM 77.0 °F 39.2 °F 26% 30.03 in 10.0 mi NE 4.6 mph - N/A   Clear
4:55 PM 77.0 °F 37.4 °F 24% 30.03 in 10.0 mi NE 6.9 mph - N/A   Partly Cloudy
5:15 PM 80.6 °F 35.6 °F 20% 30.02 in 10.0 mi NNW 11.5 mph 19.6 mph N/A   Clear
5:35 PM 80.6 °F 32.0 °F 17% 30.01 in 10.0 mi NNW 20.7 mph 29.9 mph N/A   Clear
5:55 PM 80.6 °F 33.8 °F 18% 30.01 in 10.0 mi North 13.8 mph 19.6 mph N/A   Clear
6:15 PM 80.6 °F 33.8 °F 18% 30.02 in 10.0 mi North 13.8 mph 19.6 mph N/A   Clear
6:35 PM 80.6 °F 32.0 °F 17% 30.02 in 10.0 mi NNW 15.0 mph 21.9 mph N/A   Clear
6:55 PM 80.6 °F 32.0 °F 17% 30.02 in 10.0 mi North 13.8 mph - N/A   Clear
7:15 PM 78.8 °F 32.0 °F 18% 30.02 in 10.0 mi North 13.8 mph - N/A   Clear
7:35 PM 78.8 °F 32.0 °F 18% 30.03 in 10.0 mi NNE 10.4 mph - N/A   Clear
7:55 PM 77.0 °F 32.0 °F 19% 30.03 in 10.0 mi NNE 10.4 mph - N/A   Clear
8:15 PM 75.2 °F 32.0 °F 21% 30.03 in 10.0 mi NNE 10.4 mph - N/A   Clear
8:35 PM 73.4 °F 32.0 °F 22% 30.03 in 10.0 mi NE 8.1 mph - N/A   Clear
8:55 PM 73.4 °F 32.0 °F 22% 30.04 in 10.0 mi SW 4.6 mph - N/A   Clear
9:15 PM 68.0 °F 32.0 °F 26% 30.05 in 10.0 mi West 5.8 mph - N/A   Clear
9:35 PM 69.8 °F 32.0 °F 25% 30.06 in 10.0 mi NW 3.5 mph - N/A   Clear
9:55 PM 66.2 °F 32.0 °F 28% 30.06 in 10.0 mi West 6.9 mph - N/A   Clear
10:15 PM 66.2 °F 32.0 °F 28% 30.07 in 10.0 mi WNW 5.8 mph - N/A   Clear
10:35 PM 64.4 °F 32.0 °F 30% 30.08 in 10.0 mi SSE 4.6 mph - N/A Rain Light Rain
10:55 PM 64.4 °F 32.0 °F 30% 30.08 in 10.0 mi ESE 6.9 mph - N/A Rain Light Rain
11:15 PM 62.6 °F 32.0 °F 32% 30.09 in 10.0 mi ESE 4.6 mph - N/A Rain Light Rain
11:35 PM 59.0 °F 32.0 °F 36% 30.09 in 10.0 mi East 5.8 mph - N/A   Clear